UTA292 UNOO-UNEE

Flight info

Callsign UTA292
Flight time 1h 16m
Altitude 39000
Route RUMOD A844 BIKMI R234 BESUP B234 SZ B926 NATIR
Aircraft B738/M-SDE2E3FGHIRWXY/LB1

Departure

Time 2026-05-01 11:54
Airport Omsk Central Airport (UNOO)

Arrival

Time 2026-05-01 13:10
Airport Alexei Leonov Kemerovo International Airport (UNEE)
Time Latitude Longitude Altitude Speed Heading
2026-05-01 11:31 54.96121 73.31723 308 ft 0 kts 136°
2026-05-01 11:45 54.96114 73.31735 308 ft 3 kts 133°
2026-05-01 11:46 54.96106 73.31768 311 ft 4 kts 98°
2026-05-01 11:46 54.96128 73.31838 308 ft 10 kts 49°
2026-05-01 11:46 54.96178 73.31929 308 ft 10 kts 46°
2026-05-01 11:46 54.96228 73.32019 307 ft 10 kts 46°
2026-05-01 11:47 54.96279 73.32101 307 ft 10 kts 37°
2026-05-01 11:47 54.96333 73.32172 306 ft 10 kts 36°
2026-05-01 11:47 54.96389 73.32233 307 ft 9 kts 17°
2026-05-01 11:47 54.96451 73.32253 306 ft 9 kts 32°
2026-05-01 11:48 54.96481 73.32363 304 ft 12 kts 77°
2026-05-01 11:48 54.96501 73.32516 304 ft 13 kts 77°
2026-05-01 11:48 54.96520 73.32667 304 ft 13 kts 77°
2026-05-01 11:48 54.96541 73.32815 303 ft 12 kts 77°
2026-05-01 11:49 54.96559 73.32954 303 ft 9 kts 77°
2026-05-01 11:49 54.96588 73.33036 303 ft 8 kts 30°
2026-05-01 11:49 54.96642 73.33039 303 ft 8 kts 348°
2026-05-01 11:49 54.96674 73.33026 302 ft 0 kts 347°
2026-05-01 11:51 54.96681 73.33024 303 ft 5 kts 347°
2026-05-01 11:51 54.96740 73.33001 303 ft 10 kts 347°
2026-05-01 11:51 54.96805 73.32973 303 ft 10 kts 346°
2026-05-01 11:52 54.96869 73.32948 302 ft 9 kts 347°
2026-05-01 11:52 54.96934 73.32919 301 ft 10 kts 337°
2026-05-01 11:52 54.96952 73.32811 302 ft 9 kts 257°
2026-05-01 11:52 54.96950 73.32794 305 ft 0 kts 257°
2026-05-01 11:53 54.96931 73.32652 306 ft 41 kts 256°
2026-05-01 11:53 54.96814 73.31774 306 ft 108 kts 257°
2026-05-01 11:53 54.96588 73.30176 357 ft 158 kts 254°
2026-05-01 11:53 54.96376 73.28251 886 ft 164 kts 251°
2026-05-01 11:54 54.96129 73.26262 1456 ft 166 kts 250°
2026-05-01 11:54 54.95869 73.24338 2183 ft 163 kts 248°
2026-05-01 11:54 54.95598 73.22404 2846 ft 165 kts 248°
2026-05-01 11:54 54.95324 73.20474 3554 ft 163 kts 248°
2026-05-01 11:55 54.95032 73.18421 3897 ft 188 kts 249°
2026-05-01 11:55 54.94703 73.16068 4080 ft 211 kts 250°
2026-05-01 11:55 54.94346 73.13470 4243 ft 230 kts 250°
2026-05-01 11:55 54.93961 73.10646 4570 ft 246 kts 251°
2026-05-01 11:56 54.93564 73.07723 5273 ft 249 kts 251°
2026-05-01 11:56 54.93190 73.04774 6069 ft 253 kts 257°
2026-05-01 11:56 54.93345 73.01587 6301 ft 288 kts 283°
2026-05-01 11:56 54.94382 72.98386 6499 ft 322 kts 307°
2026-05-01 11:57 54.96197 72.95916 7014 ft 341 kts 329°
2026-05-01 11:57 54.98485 72.94708 7756 ft 351 kts 352°
2026-05-01 11:57 55.00930 72.95072 8549 ft 357 kts 15°
2026-05-01 11:57 55.03154 72.97005 9285 ft 361 kts 38°
2026-05-01 11:58 55.05012 72.99962 9656 ft 363 kts 46°
2026-05-01 11:58 55.06798 73.03073 9697 ft 363 kts 45°
2026-05-01 11:58 55.10312 73.09424 9687 ft 363 kts 61°
2026-05-01 11:59 55.11252 73.13439 9719 ft 356 kts 80°
2026-05-01 11:59 55.11714 73.17677 9731 ft 356 kts 83°
2026-05-01 11:59 55.12133 73.21988 10203 ft 361 kts 84°
2026-05-01 12:00 55.12991 73.30608 11878 ft 362 kts 84°
2026-05-01 12:00 55.13436 73.34917 12602 ft 367 kts 84°
2026-05-01 12:00 55.14390 73.43791 14064 ft 378 kts 79°
2026-05-01 12:01 55.15530 73.47994 14734 ft 391 kts 56°
2026-05-01 12:01 55.17219 73.51749 15490 ft 395 kts 53°
2026-05-01 12:01 55.18973 73.55497 16177 ft 400 kts 53°
2026-05-01 12:01 55.20747 73.59293 16853 ft 406 kts 53°
2026-05-01 12:02 55.22534 73.63158 17522 ft 411 kts 53°
2026-05-01 12:02 55.24334 73.67097 18162 ft 416 kts 54°
2026-05-01 12:02 55.26146 73.71090 18777 ft 420 kts 54°
2026-05-01 12:02 55.27967 73.75121 19376 ft 424 kts 54°
2026-05-01 12:03 55.29807 73.79198 19936 ft 428 kts 53°
2026-05-01 12:03 55.31841 73.83058 20528 ft 434 kts 44°
2026-05-01 12:03 55.34023 73.86736 21092 ft 436 kts 52°
2026-05-01 12:03 55.35579 73.91271 21604 ft 432 kts 74°
2026-05-01 12:04 55.36200 73.96359 22205 ft 424 kts 92°
2026-05-01 12:04 55.35982 74.01452 22781 ft 416 kts 106°
2026-05-01 12:04 55.35461 74.06467 23316 ft 419 kts 107°
2026-05-01 12:04 55.34895 74.11515 23757 ft 423 kts 108°
2026-05-01 12:05 55.34319 74.16592 24223 ft 425 kts 108°
2026-05-01 12:05 55.33182 74.26852 25141 ft 431 kts 107°
2026-05-01 12:05 55.32620 74.32038 25589 ft 434 kts 107°
2026-05-01 12:06 55.32059 74.37261 25984 ft 437 kts 107°
2026-05-01 12:06 55.31494 74.42521 26376 ft 440 kts 107°
2026-05-01 12:06 55.30929 74.47792 26907 ft 439 kts 107°
2026-05-01 12:06 55.30368 74.53009 27346 ft 441 kts 108°
2026-05-01 12:07 55.29792 74.58322 27710 ft 445 kts 108°
2026-05-01 12:07 55.29208 74.63681 28081 ft 448 kts 108°
2026-05-01 12:07 55.28619 74.69072 28467 ft 450 kts 108°
2026-05-01 12:07 55.28025 74.74480 28857 ft 453 kts 108°
2026-05-01 12:08 55.27425 74.79916 29224 ft 455 kts 108°
2026-05-01 12:08 55.26820 74.85382 29591 ft 457 kts 108°
2026-05-01 12:08 55.26209 74.90867 29915 ft 460 kts 108°
2026-05-01 12:08 55.25593 74.96380 30166 ft 462 kts 108°
2026-05-01 12:09 55.24971 75.01930 30419 ft 465 kts 107°
2026-05-01 12:09 55.24343 75.07505 30665 ft 468 kts 107°
2026-05-01 12:09 55.23708 75.13110 30938 ft 470 kts 107°
2026-05-01 12:09 55.23069 75.18737 31210 ft 472 kts 107°
2026-05-01 12:10 55.22434 75.24303 31491 ft 473 kts 107°
2026-05-01 12:10 55.21140 75.35577 32230 ft 471 kts 107°
2026-05-01 12:10 55.20491 75.41189 32577 ft 471 kts 107°
2026-05-01 12:11 55.19184 75.52425 33220 ft 471 kts 107°
2026-05-01 12:11 55.18527 75.58040 33533 ft 470 kts 107°
2026-05-01 12:11 55.17957 75.63682 33846 ft 473 kts 101°
2026-05-01 12:12 55.17826 75.69466 34094 ft 480 kts 91°
2026-05-01 12:12 55.18184 75.75289 34383 ft 482 kts 86°
2026-05-01 12:12 55.18672 75.81086 34701 ft 481 kts 85°
2026-05-01 12:12 55.19178 75.86875 34977 ft 481 kts 85°
2026-05-01 12:13 55.19676 75.92670 35230 ft 481 kts 85°
2026-05-01 12:13 55.20154 75.98458 35503 ft 480 kts 85°
2026-05-01 12:13 55.20616 76.04251 35799 ft 479 kts 86°
2026-05-01 12:13 55.21064 76.10030 36071 ft 479 kts 86°
2026-05-01 12:14 55.21505 76.15809 36323 ft 478 kts 86°
2026-05-01 12:14 55.21941 76.21576 36614 ft 477 kts 86°
2026-05-01 12:14 55.22372 76.27330 36889 ft 476 kts 86°
2026-05-01 12:14 55.22801 76.33077 37115 ft 476 kts 86°
2026-05-01 12:15 55.23229 76.38832 37356 ft 476 kts 86°
2026-05-01 12:15 55.23654 76.44579 37617 ft 475 kts 86°
2026-05-01 12:15 55.24076 76.50321 37863 ft 475 kts 86°
2026-05-01 12:15 55.24494 76.56055 38075 ft 475 kts 86°
2026-05-01 12:16 55.24910 76.61796 38298 ft 475 kts 86°
2026-05-01 12:16 55.25326 76.67547 38520 ft 474 kts 85°
2026-05-01 12:16 55.25731 76.73200 38628 ft 475 kts 85°
2026-05-01 12:16 55.26139 76.78968 38724 ft 477 kts 86°
2026-05-01 12:17 55.26938 76.90541 38820 ft 478 kts 86°
2026-05-01 12:17 55.27722 77.02108 38821 ft 477 kts 86°
2026-05-01 12:18 55.28495 77.13640 38841 ft 476 kts 86°
2026-05-01 12:18 55.29257 77.25166 38830 ft 475 kts 86°
2026-05-01 12:19 55.30009 77.36696 38835 ft 474 kts 86°
2026-05-01 12:19 55.30747 77.48194 38838 ft 474 kts 86°
2026-05-01 12:20 55.31476 77.59704 38847 ft 474 kts 86°
2026-05-01 12:20 55.32192 77.71197 38846 ft 474 kts 86°
2026-05-01 12:21 55.32895 77.82643 38846 ft 474 kts 86°
2026-05-01 12:21 55.33589 77.94148 38850 ft 474 kts 86°
2026-05-01 12:22 55.34158 78.03715 38848 ft 474 kts 86°
2026-05-01 12:22 55.34947 78.17182 38855 ft 474 kts 86°
2026-05-01 12:23 55.35606 78.28738 38858 ft 474 kts 88°
2026-05-01 12:23 55.35449 78.40253 38866 ft 471 kts 97°
2026-05-01 12:24 55.34879 78.51634 38871 ft 471 kts 98°
2026-05-01 12:24 55.34311 78.63102 38863 ft 472 kts 98°
2026-05-01 12:25 55.33518 78.80350 38870 ft 472 kts 97°
2026-05-01 12:26 55.33079 78.89970 38867 ft 472 kts 97°
2026-05-01 12:26 55.32273 79.07228 38873 ft 472 kts 97°
2026-05-01 12:27 55.31440 79.24460 38879 ft 472 kts 97°
2026-05-01 12:28 55.30586 79.41595 38881 ft 471 kts 97°
2026-05-01 12:29 55.29708 79.58735 38888 ft 469 kts 97°
2026-05-01 12:29 55.28809 79.75805 38893 ft 468 kts 97°
2026-05-01 12:30 55.27888 79.92835 38901 ft 467 kts 98°
2026-05-01 12:31 55.27262 80.04171 38902 ft 466 kts 97°
2026-05-01 12:31 55.26626 80.15497 38905 ft 466 kts 97°
2026-05-01 12:32 55.25980 80.26801 38919 ft 466 kts 98°
2026-05-01 12:32 55.24995 80.43702 38915 ft 467 kts 98°
2026-05-01 12:33 55.24321 80.55032 38923 ft 467 kts 98°
2026-05-01 12:33 55.23636 80.66362 38920 ft 468 kts 97°
2026-05-01 12:34 55.22941 80.77700 38931 ft 468 kts 98°
2026-05-01 12:34 55.22235 80.89043 38928 ft 469 kts 98°
2026-05-01 12:35 55.21519 81.00388 38935 ft 469 kts 98°
2026-05-01 12:35 55.20785 81.11743 38933 ft 469 kts 98°
2026-05-01 12:36 55.20045 81.23025 38936 ft 469 kts 97°
2026-05-01 12:36 55.19293 81.34361 38941 ft 469 kts 97°
2026-05-01 12:37 55.18531 81.45687 38950 ft 468 kts 98°
2026-05-01 12:37 55.17760 81.56989 38954 ft 468 kts 98°
2026-05-01 12:38 55.16978 81.68290 38958 ft 468 kts 98°
2026-05-01 12:38 55.16186 81.79590 38954 ft 467 kts 97°
2026-05-01 12:39 55.15386 81.90845 38967 ft 467 kts 98°
2026-05-01 12:39 55.14574 82.02106 38967 ft 466 kts 98°
2026-05-01 12:40 55.13759 82.13275 38972 ft 466 kts 98°
2026-05-01 12:40 55.12929 82.24519 38973 ft 466 kts 98°
2026-05-01 12:41 55.12091 82.35733 38977 ft 466 kts 98°
2026-05-01 12:41 55.11217 82.46962 38980 ft 466 kts 98°
2026-05-01 12:42 55.10770 82.52589 38728 ft 471 kts 98°
2026-05-01 12:42 55.10316 82.58284 38151 ft 473 kts 98°
2026-05-01 12:42 55.09863 82.63945 37581 ft 470 kts 98°
2026-05-01 12:42 55.09411 82.69584 37001 ft 468 kts 99°
2026-05-01 12:43 55.08959 82.75197 36413 ft 467 kts 99°
2026-05-01 12:43 55.08504 82.80812 35818 ft 466 kts 99°
2026-05-01 12:43 55.08057 82.86419 35178 ft 467 kts 97°
2026-05-01 12:43 55.07914 82.92103 34500 ft 470 kts 87°
2026-05-01 12:44 55.08240 82.97790 33824 ft 472 kts 83°
2026-05-01 12:44 55.08662 83.03385 33338 ft 468 kts 82°
2026-05-01 12:44 55.09528 83.14579 32356 ft 461 kts 82°
2026-05-01 12:45 55.10328 83.25622 31445 ft 454 kts 83°
2026-05-01 12:45 55.10705 83.31070 31002 ft 451 kts 83°
2026-05-01 12:45 55.11074 83.36497 30555 ft 448 kts 83°
2026-05-01 12:46 55.11436 83.41890 30124 ft 446 kts 83°
2026-05-01 12:46 55.11793 83.47245 29611 ft 443 kts 83°
2026-05-01 12:46 55.12145 83.52569 29122 ft 439 kts 83°
2026-05-01 12:46 55.12492 83.57841 28668 ft 435 kts 83°
2026-05-01 12:47 55.12834 83.63076 28211 ft 431 kts 83°
2026-05-01 12:47 55.13171 83.68258 27761 ft 428 kts 83°
2026-05-01 12:47 55.13503 83.73404 27302 ft 425 kts 83°
2026-05-01 12:47 55.13827 83.78450 26859 ft 422 kts 83°
2026-05-01 12:48 55.14151 83.83526 26424 ft 419 kts 83°
2026-05-01 12:48 55.14471 83.88568 25994 ft 416 kts 83°
2026-05-01 12:48 55.14787 83.93583 25561 ft 413 kts 84°
2026-05-01 12:48 55.15098 83.98563 25128 ft 411 kts 84°
2026-05-01 12:49 55.15406 84.03519 24702 ft 409 kts 84°
2026-05-01 12:49 55.15710 84.08445 24275 ft 407 kts 84°
2026-05-01 12:49 55.16010 84.13349 23845 ft 405 kts 84°
2026-05-01 12:49 55.16308 84.18240 23369 ft 404 kts 84°
2026-05-01 12:50 55.16602 84.23110 22882 ft 401 kts 84°
2026-05-01 12:50 55.16893 84.27945 22432 ft 398 kts 84°
2026-05-01 12:50 55.17179 84.32743 21996 ft 395 kts 84°
2026-05-01 12:50 55.17461 84.37503 21570 ft 392 kts 84°
2026-05-01 12:51 55.17740 84.42233 21157 ft 389 kts 84°
2026-05-01 12:51 55.18016 84.46929 20737 ft 387 kts 84°
2026-05-01 12:51 55.18557 84.56242 19908 ft 382 kts 83°
2026-05-01 12:52 55.18890 84.60845 19499 ft 381 kts 82°
2026-05-01 12:52 55.19608 84.69979 18681 ft 377 kts 83°
2026-05-01 12:52 55.19787 84.74566 18257 ft 377 kts 88°
2026-05-01 12:53 55.19830 84.83631 17374 ft 373 kts 90°
2026-05-01 12:53 55.19827 84.88209 16956 ft 370 kts 90°
2026-05-01 12:53 55.19831 84.92709 16544 ft 368 kts 90°
2026-05-01 12:54 55.19844 84.97160 16141 ft 365 kts 90°
2026-05-01 12:54 55.19886 85.05945 15352 ft 361 kts 89°
2026-05-01 12:54 55.19909 85.10325 14957 ft 359 kts 89°
2026-05-01 12:55 55.19957 85.19024 14172 ft 356 kts 89°
2026-05-01 12:55 55.19979 85.23350 13748 ft 355 kts 89°
2026-05-01 12:55 55.20000 85.27660 13311 ft 353 kts 89°
2026-05-01 12:56 55.20019 85.31939 12899 ft 351 kts 89°
2026-05-01 12:56 55.20036 85.36191 12494 ft 348 kts 89°
2026-05-01 12:56 55.20052 85.40419 12104 ft 345 kts 89°
2026-05-01 12:56 55.20066 85.44605 11713 ft 343 kts 89°
2026-05-01 12:57 55.20078 85.48757 11325 ft 340 kts 89°
2026-05-01 12:57 55.20099 85.56991 10551 ft 336 kts 89°
2026-05-01 12:57 55.20107 85.61039 10347 ft 328 kts 89°
2026-05-01 12:58 55.20114 85.64971 10195 ft 318 kts 89°
2026-05-01 12:58 55.20119 85.68799 10028 ft 310 kts 89°
2026-05-01 12:58 55.20123 85.72571 9682 ft 309 kts 89°
2026-05-01 12:59 55.20128 85.80039 9024 ft 304 kts 90°
2026-05-01 12:59 55.20129 85.83733 8705 ft 302 kts 90°
2026-05-01 12:59 55.20126 85.90996 8068 ft 298 kts 90°
2026-05-01 13:00 55.20120 85.98198 7430 ft 294 kts 90°
2026-05-01 13:00 55.20116 86.01771 7106 ft 292 kts 90°
2026-05-01 13:01 55.20105 86.08837 6500 ft 288 kts 90°
2026-05-01 13:01 55.20097 86.12326 6166 ft 283 kts 90°
2026-05-01 13:01 55.20218 86.19073 5527 ft 275 kts 73°
2026-05-01 13:02 55.21089 86.22010 5244 ft 272 kts 54°
2026-05-01 13:07 55.32563 86.23739 2250 ft 166 kts 231°
2026-05-01 13:07 55.31871 86.22128 2044 ft 163 kts 231°
2026-05-01 13:07 55.31200 86.20564 1882 ft 157 kts 231°
2026-05-01 13:08 55.30539 86.19026 1684 ft 157 kts 231°
2026-05-01 13:08 55.29889 86.17504 1468 ft 153 kts 232°
2026-05-01 13:08 55.29256 86.16030 1281 ft 151 kts 232°
2026-05-01 13:08 55.28629 86.14554 1135 ft 152 kts 232°
2026-05-01 13:09 55.27994 86.13075 937 ft 151 kts 232°
2026-05-01 13:09 55.27373 86.11639 848 ft 140 kts 232°
2026-05-01 13:09 55.26886 86.10476 833 ft 96 kts 233°
2026-05-01 13:09 55.26579 86.09754 835 ft 52 kts 232°
2026-05-01 13:10 55.26430 86.09414 841 ft 23 kts 226°
2026-05-01 13:10 55.26374 86.09314 840 ft 7 kts 246°
2026-05-01 13:10 55.26391 86.09286 837 ft 5 kts
2026-05-01 13:10 55.26427 86.09367 836 ft 14 kts 57°
2026-05-01 13:11 55.26490 86.09531 833 ft 17 kts 55°
2026-05-01 13:11 55.26561 86.09691 836 ft 16 kts 45°
2026-05-01 13:11 55.26651 86.09807 840 ft 16 kts 28°
2026-05-01 13:11 55.26751 86.09874 838 ft 15 kts 18°
2026-05-01 13:12 55.26849 86.09930 841 ft 14 kts 18°
2026-05-01 13:12 55.26943 86.09983 840 ft 14 kts 18°
2026-05-01 13:12 55.27033 86.10033 839 ft 13 kts 17°
2026-05-01 13:12 55.27126 86.10086 837 ft 15 kts 18°
2026-05-01 13:13 55.27189 86.10122 843 ft 14 kts 18°
2026-05-01 13:13 55.27274 86.10197 837 ft 14 kts 45°
2026-05-01 13:13 55.27345 86.10370 837 ft 13 kts 56°
2026-05-01 13:13 55.27395 86.10498 836 ft 13 kts 55°
2026-05-01 13:14 55.27446 86.10623 847 ft 13 kts 55°
2026-05-01 13:14 55.27510 86.10789 847 ft 18 kts 56°
2026-05-01 13:14 55.27557 86.10907 843 ft 17 kts 55°
2026-05-01 13:14 55.27623 86.11075 844 ft 17 kts 55°
2026-05-01 13:15 55.27687 86.11238 845 ft 16 kts 55°
2026-05-01 13:15 55.27749 86.11395 840 ft 15 kts 56°
2026-05-01 13:15 55.27808 86.11545 844 ft 15 kts 55°
2026-05-01 13:15 55.27865 86.11690 850 ft 14 kts 55°
2026-05-01 13:16 55.27911 86.11805 843 ft 7 kts 55°
2026-05-01 13:16 55.27935 86.11844 850 ft 4 kts 19°
2026-05-01 13:16 55.27964 86.11833 841 ft 5 kts 333°
2026-05-01 13:17 55.27984 86.11808 848 ft 0 kts 324°